| time (UTC) | temp F | wind direction | speed MPH | gust MPH | rain 1hr in | rain 24hr in | rain mn in | humidity % | barometer mb |
| 20260506232739 | 55 | 321 | 1.0 | 2.0 | 0.00 | 0.00 | 0.00 | 91 | 1012.8 |
| 20260506231238 | 55 | 59 | 2.0 | 3.0 | 0.00 | 0.00 | 0.00 | 93 | 1012.6 |
| 20260506225738 | 56 | 163 | 3.0 | 3.0 | 0.00 | 0.00 | 0.00 | 91 | 1012.6 |
| 20260506224238 | 56 | 253 | 1.0 | 1.0 | 0.00 | 0.00 | 0.00 | 90 | 1012.8 |
| 20260506222738 | 55 | 64 | 2.0 | 2.0 | 0.00 | 0.00 | 0.00 | 91 | 1012.6 |
| 20260506221238 | 56 | 121 | 3.0 | 4.0 | 0.00 | 0.00 | 0.00 | 90 | 1012.6 |
| 20260506215737 | 56 | 177 | 2.0 | 2.0 | 0.00 | 0.00 | 1.43 | 90 | 1012.9 |
| 20260506214237 | 56 | 248 | 1.0 | 2.0 | 0.00 | 0.00 | 1.43 | 90 | 1012.7 |
| 20260506212737 | 56 | 197 | 4.0 | 6.0 | 0.00 | 0.00 | 1.43 | 91 | 1012.8 |
| 20260506211236 | 57 | 259 | 2.0 | 2.0 | 0.00 | 0.00 | 1.43 | 90 | 1012.6 |
| 20260506205736 | 56 | 269 | 0.0 | 0.0 | 0.00 | 0.00 | 1.43 | 92 | 1012.8 |
| 20260506204235 | 57 | 54 | 2.0 | 3.0 | 0.00 | 0.00 | 1.43 | 90 | 1012.7 |
| 20260506202735 | 57 | 263 | 0.0 | 0.0 | 0.00 | 0.00 | 1.43 | 92 | 1012.4 |
| 20260506201235 | 57 | 52 | 3.0 | 4.0 | 0.00 | 0.00 | 1.43 | 93 | 1012.3 |
| 20260506195735 | 57 | 253 | 1.0 | 2.0 | 0.00 | 0.00 | 1.43 | 92 | 1012.2 |
| 20260506194234 | 57 | 241 | 0.0 | 0.0 | 0.00 | 0.00 | 1.43 | 93 | 1012.1 |
| 20260506192734 | 57 | 267 | 1.0 | 3.0 | 0.00 | 0.00 | 1.43 | 93 | 1011.8 |
| 20260506191233 | 57 | 145 | 2.0 | 3.0 | 0.00 | 0.00 | 1.43 | 93 | 1011.5 |
| 20260506185733 | 57 | 248 | 2.0 | 3.0 | 0.00 | 0.00 | 1.43 | 93 | 1011.4 |
| 20260506184232 | 57 | 212 | 3.0 | 6.0 | 0.00 | 0.00 | 1.43 | 92 | 1011.3 |
| 20260506182732 | 57 | 228 | 2.0 | 3.0 | 0.00 | 0.00 | 1.43 | 93 | 1011.2 |
| 20260506181232 | 57 | 192 | 4.0 | 5.0 | 0.00 | 0.00 | 1.43 | 92 | 1010.8 |
| 20260506175731 | 57 | 207 | 5.0 | 7.0 | 0.00 | 0.00 | 1.43 | 92 | 1010.9 |
| 20260506174231 | 58 | 130 | 9.0 | 12.0 | 0.00 | 0.00 | 1.43 | 90 | 1010.8 |
| 20260506172731 | 58 | 196 | 7.0 | 9.0 | 0.00 | 0.00 | 1.43 | 89 | 1010.7 |
| 20260506171231 | 59 | 206 | 7.0 | 10.0 | 0.00 | 0.00 | 1.43 | 89 | 1010.6 |
| 20260506165731 | 59 | 200 | 5.0 | 6.0 | 0.00 | 0.00 | 1.43 | 89 | 1010.6 |
| 20260506164231 | 59 | 223 | 8.0 | 10.0 | 0.00 | 0.00 | 1.43 | 89 | 1010.5 |
| 20260506162730 | 60 | 177 | 9.0 | 11.0 | 0.00 | 0.00 | 1.43 | 87 | 1010.5 |
| 20260506161230 | 62 | 211 | 4.0 | 5.0 | 0.00 | 0.00 | 1.43 | 86 | 1010.5 |
| 20260506155730 | 60 | 207 | 8.0 | 11.0 | 0.00 | 0.00 | 1.43 | 92 | 1010.3 |
| 20260506154230 | 60 | 197 | 8.0 | 10.0 | 0.00 | 0.00 | 1.43 | 91 | 1010.5 |
| 20260506152729 | 60 | 215 | 6.0 | 8.0 | 0.00 | 0.00 | 1.43 | 93 | 1010.6 |
| 20260506151229 | 60 | 225 | 6.0 | 8.0 | 0.00 | 0.00 | 1.43 | 92 | 1010.3 |
| 20260506145729 | 63 | 216 | 9.0 | 14.0 | 0.00 | 0.00 | 1.43 | 86 | 1010.4 |
| 20260506144228 | 64 | 193 | 8.0 | 11.0 | 0.00 | 0.00 | 1.43 | 87 | 1010.3 |
| 20260506142728 | 62 | 234 | 6.0 | 7.0 | 0.00 | 0.00 | 1.43 | 89 | 1010.2 |
| 20260506141228 | 64 | 185 | 5.0 | 7.0 | 0.00 | 0.00 | 1.43 | 86 | 1010.1 |
| 20260506135728 | 63 | 202 | 8.0 | 12.0 | 0.00 | 0.00 | 1.43 | 88 | 1010.2 |
| 20260506134227 | 63 | 184 | 8.0 | 9.0 | 0.00 | 0.00 | 1.43 | 90 | 1010.4 |
| 20260506132727 | 63 | 265 | 7.0 | 8.0 | 0.00 | 0.00 | 1.43 | 91 | 1010.7 |
| 20260506131227 | 61 | 166 | 9.0 | 11.0 | 0.00 | 0.00 | 1.43 | 94 | 1010.4 |
| 20260506125727 | 62 | 193 | 5.0 | 9.0 | 0.00 | 0.00 | 1.43 | 93 | 1010.5 |
| 20260506124226 | 61 | 150 | 6.0 | 10.0 | 0.00 | 0.00 | 1.43 | 92 | 1010.6 |
| 20260506122726 | 62 | 214 | 9.0 | 11.0 | 0.00 | 0.00 | 1.43 | 90 | 1010.6 |
| 20260506121226 | 62 | 188 | 7.0 | 9.0 | 0.00 | 0.00 | 1.43 | 91 | 1010.4 |
| 20260506115725 | 63 | 163 | 8.0 | 9.0 | 0.00 | 0.00 | 1.43 | 86 | 1010.4 |
| 20260506114225 | 62 | 159 | 5.0 | 9.0 | 0.00 | 0.00 | 1.43 | 91 | 1010.4 |
| 20260506112725 | 63 | 175 | 9.0 | 11.0 | 0.00 | 0.00 | 1.43 | 88 | 1010.3 |
| 20260506111224 | 62 | 225 | 6.0 | 7.0 | 0.00 | 0.00 | 1.43 | 92 | 1010.3 |
| 20260506105724 | 60 | 209 | 10.0 | 11.0 | 0.00 | 0.00 | 1.43 | 95 | 1010.5 |
| 20260506104223 | 59 | 172 | 8.0 | 10.0 | 0.00 | 0.00 | 1.43 | 99 | 1010.1 |
| 20260506102723 | 58 | 212 | 9.0 | 11.0 | 0.00 | 0.00 | 1.43 | 99 | 1010.3 |
| 20260506101223 | 59 | 222 | 11.0 | 15.0 | 0.00 | 0.00 | 1.43 | 99 | 1010.0 |
| 20260506095722 | 59 | 201 | 16.0 | 19.0 | 0.00 | 0.00 | 1.43 | 99 | 1009.7 |
| 20260506094222 | 59 | 205 | 14.0 | 18.0 | 0.00 | 0.00 | 1.43 | 99 | 1009.7 |
| 20260506092722 | 60 | 229 | 19.0 | 21.0 | 0.00 | 0.00 | 1.43 | 99 | 1009.4 |
| 20260506091221 | 60 | 223 | 12.0 | 18.0 | 0.00 | 0.00 | 1.43 | 99 | 1009.3 |
| 20260506085721 | 60 | 206 | 15.0 | 17.0 | 0.00 | 0.00 | 1.43 | 99 | 1009.4 |
| 20260506084221 | 59 | 209 | 15.0 | 19.0 | 0.05 | 0.00 | 1.43 | 99 | 1009.2 |
| 20260506082720 | 59 | 220 | 20.0 | 25.0 | 0.00 | 0.00 | 1.41 | 99 | 1008.9 |
| 20260506081220 | 59 | 232 | 22.0 | 26.0 | 0.00 | 0.00 | 1.41 | 99 | 1008.7 |
| 20260506072719 | 59 | 235 | 16.0 | 20.0 | 0.00 | 0.00 | 1.41 | 99 | 1009.0 |
| 20260506071218 | 59 | 75 | 10.0 | 13.0 | 0.07 | 0.00 | 1.41 | 99 | 1008.9 |
| 20260506061217 | 57 | 204 | 8.0 | 9.0 | 0.05 | 0.00 | 1.40 | 99 | 1008.7 |
| 20260506051215 | 54 | 23 | 5.0 | 6.0 | 0.00 | 0.00 | 1.38 | 99 | 1008.5 |
| 20260506041311 | 54 | 354 | 6.0 | 8.0 | 0.00 | 0.00 | 1.13 | 99 | 1009.0 |
| 20260506035811 | 54 | 345 | 3.0 | 4.0 | 0.00 | 0.00 | 1.13 | 99 | 1009.2 |
| 20260506034311 | 55 | 339 | 2.0 | 3.0 | 0.00 | 0.00 | 1.13 | 99 | 1009.3 |
| 20260506032811 | 55 | 91 | 3.0 | 4.0 | 0.00 | 0.00 | 1.13 | 99 | 1009.4 |
| 20260506031310 | 55 | 267 | 0.0 | 0.0 | 0.07 | 0.00 | 1.13 | 99 | 1009.4 |
| 20260506030030 | 55 | 287 | 9.0 | 11.0 | 1.98 | 0.00 | 0.98 | 99 | 1009.2 |
| 20260506024310 | 54 | 283 | 7.0 | 8.0 | 0.71 | 0.00 | 0.56 | 99 | 1009.1 |
| 20260506022809 | 55 | 328 | 4.0 | 5.0 | 0.07 | 0.00 | 0.41 | 99 | 1008.9 |
| 20260506021309 | 55 | 101 | 3.0 | 5.0 | 0.31 | 0.00 | 0.39 | 99 | 1009.1 |
| 20260506015809 | 55 | 79 | 4.0 | 5.0 | 0.12 | 0.00 | 0.31 | 99 | 1009.8 |
| 20260506014308 | 55 | 52 | 5.0 | 6.0 | 0.05 | 0.00 | 0.27 | 99 | 1009.8 |
| 20260506012808 | 55 | 33 | 5.0 | 6.0 | 0.07 | 0.00 | 0.26 | 99 | 1010.1 |
| 20260506011308 | 54 | 23 | 5.0 | 6.0 | 0.00 | 0.00 | 0.24 | 99 | 1010.1 |
| 20260506005807 | 55 | 50 | 3.0 | 4.0 | 0.00 | 0.00 | 0.24 | 99 | 1010.3 |
| 20260506004307 | 55 | 26 | 3.0 | 4.0 | 0.00 | 0.00 | 0.24 | 99 | 1010.5 |
| 20260506002806 | 55 | 18 | 4.0 | 4.0 | 0.00 | 0.00 | 0.24 | 99 | 1010.7 |
| 20260506001306 | 55 | 264 | 0.0 | 0.0 | 0.12 | 0.00 | 0.24 | 99 | 1010.9 |
| 20260505235806 | 56 | 33 | 3.0 | 3.0 | 0.94 | 0.00 | 0.16 | 98 | 1010.8 |
| 20260505234305 | 58 | 9 | 6.0 | 7.0 | 0.00 | 0.00 | 0.00 | 89 | 1011.1 |